UAL27LB YSCB-YMHB

Flight info

Callsign UAL27LB
Flight time 1h 19m
Altitude 35000
Route TANTA DCT MAKRL J163 VEKLO DCT IPLET
Aircraft B736/M-SDE2E3FGHIRWXY/LB1

Departure

Time 2026-04-28 10:52
Airport Canberra Airport (YSCB)

Arrival

Time 2026-04-28 12:11
Airport Hobart International Airport (YMHB)
Time Latitude Longitude Altitude Speed Heading
2026-04-28 10:29 -35.30628 149.19020 1878 ft 0 kts 220°
2026-04-28 10:45 -35.30610 149.19040 1874 ft 4 kts 226°
2026-04-28 10:45 -35.30594 149.19065 1877 ft 4 kts 245°
2026-04-28 10:45 -35.30589 149.19093 1873 ft 4 kts 301°
2026-04-28 10:45 -35.30592 149.19098 1874 ft 1 kts 309°
2026-04-28 10:47 -35.30586 149.19088 1872 ft 3 kts 309°
2026-04-28 10:48 -35.30569 149.19063 1876 ft 5 kts 309°
2026-04-28 10:48 -35.30539 149.19021 1876 ft 8 kts 314°
2026-04-28 10:48 -35.30474 149.18998 1878 ft 12 kts 352°
2026-04-28 10:48 -35.30386 149.19008 1878 ft 14 kts 39°
2026-04-28 10:49 -35.30300 149.19092 1878 ft 17 kts 39°
2026-04-28 10:49 -35.30201 149.19193 1878 ft 20 kts 39°
2026-04-28 10:49 -35.30070 149.19244 1878 ft 21 kts 360°
2026-04-28 10:49 -35.29917 149.19242 1878 ft 23 kts 359°
2026-04-28 10:50 -35.29749 149.19242 1878 ft 25 kts
2026-04-28 10:50 -35.29587 149.19285 1878 ft 25 kts 66°
2026-04-28 10:50 -35.29587 149.19441 1878 ft 4 kts 145°
2026-04-28 10:50 -35.29617 149.19443 1878 ft 9 kts 180°
2026-04-28 10:51 -35.29912 149.19442 1878 ft 74 kts 179°
2026-04-28 10:51 -35.30624 149.19446 1878 ft 128 kts 179°
2026-04-28 10:51 -35.31655 149.19451 1911 ft 165 kts 180°
2026-04-28 10:51 -35.32806 149.19567 2361 ft 161 kts 156°
2026-04-28 10:52 -35.33621 149.20480 2737 ft 166 kts 109°
2026-04-28 10:52 -35.33590 149.21865 3098 ft 170 kts 60°
2026-04-28 10:52 -35.32706 149.22757 3482 ft 168 kts
2026-04-28 10:52 -35.31619 149.22513 3926 ft 161 kts 322°
2026-04-28 10:53 -35.30831 149.21519 4345 ft 162 kts 311°
2026-04-28 10:53 -35.29973 149.20564 4731 ft 172 kts 319°
2026-04-28 10:53 -35.29052 149.19649 5200 ft 173 kts 326°
2026-04-28 10:53 -35.27938 149.19137 5606 ft 176 kts 356°
2026-04-28 10:54 -35.26719 149.19301 6014 ft 179 kts
2026-04-28 10:54 -35.25514 149.19587 6507 ft 175 kts 10°
2026-04-28 10:54 -35.24284 149.19906 6778 ft 187 kts
2026-04-28 10:54 -35.22970 149.20129 7176 ft 183 kts
2026-04-28 10:55 -35.21747 149.20093 7679 ft 178 kts 337°
2026-04-28 10:55 -35.20887 149.19078 7949 ft 177 kts 288°
2026-04-28 10:55 -35.20811 149.17525 8267 ft 192 kts 264°
2026-04-28 10:55 -35.20959 149.15830 8549 ft 210 kts 266°
2026-04-28 10:56 -35.21066 149.13991 8910 ft 223 kts 266°
2026-04-28 10:56 -35.21181 149.12008 9182 ft 240 kts 266°
2026-04-28 10:56 -35.21288 149.09920 9444 ft 263 kts 266°
2026-04-28 10:56 -35.21389 149.07647 10103 ft 272 kts 267°
2026-04-28 10:57 -35.21505 149.05266 10775 ft 280 kts 265°
2026-04-28 10:57 -35.21684 149.02871 11503 ft 285 kts 265°
2026-04-28 10:57 -35.21793 149.00406 11868 ft 307 kts 267°
2026-04-28 10:57 -35.21945 148.97695 12042 ft 331 kts 259°
2026-04-28 10:58 -35.22884 148.95040 12196 ft 354 kts 233°
2026-04-28 10:58 -35.24807 148.93034 12363 ft 377 kts 208°
2026-04-28 10:58 -35.27374 148.92113 12604 ft 394 kts 189°
2026-04-28 10:58 -35.30130 148.91710 13102 ft 401 kts 187°
2026-04-28 10:59 -35.32917 148.91359 13748 ft 403 kts 186°
2026-04-28 10:59 -35.35713 148.90987 14371 ft 406 kts 187°
2026-04-28 10:59 -35.38523 148.90576 14937 ft 408 kts 187°
2026-04-28 10:59 -35.41346 148.90128 15516 ft 410 kts 188°
2026-04-28 11:00 -35.44180 148.89665 16078 ft 412 kts 188°
2026-04-28 11:00 -35.46989 148.89201 16661 ft 414 kts 188°
2026-04-28 11:00 -35.49853 148.88725 17223 ft 416 kts 188°
2026-04-28 11:00 -35.52731 148.88247 17747 ft 419 kts 188°
2026-04-28 11:01 -35.55627 148.87766 18254 ft 422 kts 188°
2026-04-28 11:01 -35.58548 148.87280 18761 ft 424 kts 188°
2026-04-28 11:01 -35.61495 148.86790 19213 ft 427 kts 188°
2026-04-28 11:01 -35.64447 148.86298 19640 ft 429 kts 188°
2026-04-28 11:02 -35.67374 148.85532 20037 ft 432 kts 200°
2026-04-28 11:02 -35.70021 148.83777 20451 ft 435 kts 216°
2026-04-28 11:02 -35.72222 148.81281 20856 ft 438 kts 230°
2026-04-28 11:02 -35.74006 148.78212 21244 ft 442 kts 235°
2026-04-28 11:03 -35.75736 148.75066 21608 ft 445 kts 235°
2026-04-28 11:03 -35.77487 148.71899 21971 ft 448 kts 234°
2026-04-28 11:03 -35.79265 148.68725 22335 ft 450 kts 234°
2026-04-28 11:03 -35.81069 148.65547 22694 ft 453 kts 234°
2026-04-28 11:04 -35.82862 148.62404 23036 ft 455 kts 234°
2026-04-28 11:04 -35.84690 148.59200 23371 ft 457 kts 233°
2026-04-28 11:04 -35.86768 148.56236 23622 ft 459 kts 219°
2026-04-28 11:04 -35.89477 148.54179 23948 ft 460 kts 204°
2026-04-28 11:05 -35.92534 148.52983 24226 ft 462 kts 190°
2026-04-28 11:05 -35.95745 148.52659 24501 ft 464 kts 183°
2026-04-28 11:05 -35.97889 148.52575 24669 ft 465 kts 182°
2026-04-28 11:05 -36.01132 148.52495 24907 ft 467 kts 181°
2026-04-28 11:06 -36.04394 148.52429 25141 ft 469 kts 182°
2026-04-28 11:06 -36.07666 148.52352 25372 ft 471 kts 182°
2026-04-28 11:06 -36.10953 148.52257 25600 ft 473 kts 182°
2026-04-28 11:06 -36.14254 148.52145 25842 ft 474 kts 182°
2026-04-28 11:07 -36.17565 148.52020 26077 ft 476 kts 183°
2026-04-28 11:07 -36.20874 148.51889 26280 ft 477 kts 183°
2026-04-28 11:07 -36.24205 148.51754 26450 ft 478 kts 183°
2026-04-28 11:07 -36.27533 148.51618 26637 ft 479 kts 183°
2026-04-28 11:08 -36.30858 148.51482 26877 ft 478 kts 183°
2026-04-28 11:08 -36.34184 148.51347 27151 ft 477 kts 183°
2026-04-28 11:08 -36.37497 148.51213 27435 ft 476 kts 183°
2026-04-28 11:08 -36.40808 148.51079 27709 ft 476 kts 183°
2026-04-28 11:09 -36.44078 148.50947 27984 ft 475 kts 183°
2026-04-28 11:09 -36.47378 148.50813 28264 ft 475 kts 183°
2026-04-28 11:09 -36.50701 148.50679 28508 ft 476 kts 183°
2026-04-28 11:09 -36.54010 148.50544 28799 ft 475 kts 183°
2026-04-28 11:10 -36.57308 148.50411 29138 ft 474 kts 183°
2026-04-28 11:10 -36.60599 148.50278 29488 ft 473 kts 183°
2026-04-28 11:10 -36.63896 148.50144 29830 ft 472 kts 183°
2026-04-28 11:10 -36.67181 148.50010 30171 ft 472 kts 184°
2026-04-28 11:11 -36.70471 148.49876 30450 ft 474 kts 184°
2026-04-28 11:11 -36.73730 148.49743 30687 ft 474 kts 184°
2026-04-28 11:11 -36.77019 148.49609 31039 ft 472 kts 184°
2026-04-28 11:11 -36.80297 148.49476 31446 ft 469 kts 184°
2026-04-28 11:12 -36.83561 148.49344 31875 ft 466 kts 184°
2026-04-28 11:12 -36.86790 148.49212 32258 ft 464 kts 184°
2026-04-28 11:12 -36.90026 148.49080 32593 ft 464 kts 184°
2026-04-28 11:12 -36.93251 148.48947 32906 ft 463 kts 184°
2026-04-28 11:13 -36.96472 148.48815 33263 ft 462 kts 184°
2026-04-28 11:13 -36.99629 148.48686 33635 ft 459 kts 184°
2026-04-28 11:13 -37.02818 148.48555 33982 ft 458 kts 184°
2026-04-28 11:13 -37.06001 148.48425 34288 ft 457 kts 184°
2026-04-28 11:14 -37.09174 148.48294 34572 ft 456 kts 184°
2026-04-28 11:14 -37.12343 148.48164 34775 ft 456 kts 184°
2026-04-28 11:14 -37.15517 148.48034 34992 ft 455 kts 184°
2026-04-28 11:14 -37.18688 148.47902 35253 ft 454 kts 184°
2026-04-28 11:15 -37.21848 148.47771 35338 ft 456 kts 184°
2026-04-28 11:15 -37.28191 148.47509 35344 ft 454 kts 184°
2026-04-28 11:16 -37.34511 148.47248 35343 ft 454 kts 184°
2026-04-28 11:16 -37.40780 148.46988 35334 ft 453 kts 184°
2026-04-28 11:17 -37.47094 148.46726 35328 ft 454 kts 184°
2026-04-28 11:17 -37.53407 148.46463 35321 ft 455 kts 185°
2026-04-28 11:18 -37.59739 148.46199 35318 ft 455 kts 185°
2026-04-28 11:18 -37.66084 148.45934 35314 ft 456 kts 185°
2026-04-28 11:19 -37.72428 148.45669 35309 ft 457 kts 185°
2026-04-28 11:19 -37.78794 148.45403 35307 ft 457 kts 185°
2026-04-28 11:20 -37.85165 148.45136 35307 ft 458 kts 185°
2026-04-28 11:20 -37.91494 148.44870 35301 ft 458 kts 185°
2026-04-28 11:21 -37.97883 148.44601 35310 ft 459 kts 185°
2026-04-28 11:21 -38.04272 148.44332 35300 ft 460 kts 185°
2026-04-28 11:22 -38.10683 148.44061 35300 ft 461 kts 185°
2026-04-28 11:22 -38.17113 148.43789 35298 ft 463 kts 185°
2026-04-28 11:22 -38.20338 148.43652 35407 ft 464 kts 185°
2026-04-28 11:23 -38.23563 148.43516 35677 ft 462 kts 185°
2026-04-28 11:23 -38.26776 148.43381 35988 ft 459 kts 186°
2026-04-28 11:23 -38.29961 148.43247 36265 ft 457 kts 186°
2026-04-28 11:23 -38.33139 148.43112 36497 ft 456 kts 186°
2026-04-28 11:24 -38.36314 148.42976 36693 ft 456 kts 186°
2026-04-28 11:24 -38.39486 148.42841 36910 ft 455 kts 186°
2026-04-28 11:24 -38.42608 148.42707 37133 ft 454 kts 186°
2026-04-28 11:24 -38.45762 148.42573 37291 ft 454 kts 186°
2026-04-28 11:25 -38.48926 148.42431 37295 ft 455 kts 187°
2026-04-28 11:25 -38.55144 148.41261 37299 ft 450 kts 196°
2026-04-28 11:26 -38.61270 148.39632 37292 ft 449 kts 196°
2026-04-28 11:26 -38.67395 148.38014 37288 ft 449 kts 196°
2026-04-28 11:27 -38.73531 148.36443 37291 ft 450 kts 196°
2026-04-28 11:27 -38.79636 148.34903 37291 ft 450 kts 196°
2026-04-28 11:28 -38.85790 148.33353 37286 ft 450 kts 196°
2026-04-28 11:28 -38.91948 148.31797 37388 ft 450 kts 196°
2026-04-28 11:28 -38.95007 148.31024 37790 ft 445 kts 197°
2026-04-28 11:29 -38.98016 148.30266 38276 ft 438 kts 197°
2026-04-28 11:29 -39.00989 148.29515 38735 ft 432 kts 197°
2026-04-28 11:29 -39.03939 148.28768 39079 ft 429 kts 197°
2026-04-28 11:29 -39.06859 148.28024 39242 ft 429 kts 198°
2026-04-28 11:30 -39.09795 148.27273 39282 ft 432 kts 198°
2026-04-28 11:30 -39.18615 148.25022 39286 ft 431 kts 198°
2026-04-28 11:31 -39.24487 148.23524 39294 ft 429 kts 198°
2026-04-28 11:31 -39.30347 148.22026 39285 ft 428 kts 198°
2026-04-28 11:32 -39.36192 148.20529 39286 ft 427 kts 198°
2026-04-28 11:32 -39.41998 148.19038 39291 ft 428 kts 198°
2026-04-28 11:33 -39.47857 148.17531 39286 ft 429 kts 198°
2026-04-28 11:33 -39.53730 148.16018 39283 ft 430 kts 198°
2026-04-28 11:34 -39.59620 148.14499 39292 ft 432 kts 198°
2026-04-28 11:34 -39.65507 148.12977 39281 ft 434 kts 198°
2026-04-28 11:35 -39.71444 148.11441 39281 ft 436 kts 198°
2026-04-28 11:35 -39.77412 148.09893 39283 ft 437 kts 199°
2026-04-28 11:36 -39.83390 148.08341 39281 ft 439 kts 199°
2026-04-28 11:36 -39.89391 148.06780 39273 ft 440 kts 199°
2026-04-28 11:37 -39.95400 148.05213 39283 ft 440 kts 199°
2026-04-28 11:37 -40.01415 148.03643 39266 ft 441 kts 199°
2026-04-28 11:38 -40.07400 148.02078 39268 ft 441 kts 199°
2026-04-28 11:38 -40.13481 148.00701 39263 ft 444 kts 195°
2026-04-28 11:39 -40.19628 147.99687 39260 ft 445 kts 194°
2026-04-28 11:39 -40.25775 147.98706 39261 ft 444 kts 195°
2026-04-28 11:40 -40.31871 147.97692 39267 ft 444 kts 195°
2026-04-28 11:40 -40.38000 147.96644 39256 ft 444 kts 195°
2026-04-28 11:41 -40.44131 147.95588 39250 ft 444 kts 195°
2026-04-28 11:41 -40.50274 147.94527 39258 ft 445 kts 195°
2026-04-28 11:42 -40.56425 147.93464 39251 ft 446 kts 195°
2026-04-28 11:42 -40.62542 147.92406 39250 ft 446 kts 195°
2026-04-28 11:43 -40.68720 147.91335 39241 ft 447 kts 196°
2026-04-28 11:43 -40.74903 147.90261 39241 ft 448 kts 196°
2026-04-28 11:44 -40.81102 147.89182 39232 ft 449 kts 196°
2026-04-28 11:44 -40.87268 147.88108 39236 ft 450 kts 196°
2026-04-28 11:45 -40.93483 147.87022 39264 ft 451 kts 196°
2026-04-28 11:45 -40.99723 147.85931 39237 ft 452 kts 196°
2026-04-28 11:46 -41.05971 147.84835 39233 ft 453 kts 196°
2026-04-28 11:46 -41.12236 147.83735 39225 ft 454 kts 196°
2026-04-28 11:47 -41.18504 147.82631 39234 ft 454 kts 196°
2026-04-28 11:47 -41.24784 147.81523 38948 ft 460 kts 196°
2026-04-28 11:48 -41.27937 147.80960 38286 ft 463 kts 196°
2026-04-28 11:48 -41.31127 147.80399 37665 ft 460 kts 196°
2026-04-28 11:48 -41.34297 147.79841 36967 ft 459 kts 196°
2026-04-28 11:48 -41.37459 147.79285 36279 ft 457 kts 196°
2026-04-28 11:49 -41.40608 147.78720 35552 ft 456 kts 195°
2026-04-28 11:49 -41.43765 147.78153 34799 ft 456 kts 195°
2026-04-28 11:49 -41.46879 147.77602 33986 ft 458 kts 195°
2026-04-28 11:49 -41.50055 147.77039 33084 ft 459 kts 195°
2026-04-28 11:50 -41.53219 147.76479 32248 ft 459 kts 195°
2026-04-28 11:50 -41.56389 147.75917 31384 ft 460 kts 195°
2026-04-28 11:50 -41.59561 147.75352 30482 ft 460 kts 195°
2026-04-28 11:50 -41.62741 147.74783 29420 ft 461 kts 195°
2026-04-28 11:51 -41.65926 147.74215 28364 ft 461 kts 195°
2026-04-28 11:51 -41.69116 147.73645 27289 ft 462 kts 194°
2026-04-28 11:51 -41.72300 147.73074 26171 ft 463 kts 194°
2026-04-28 11:51 -41.75499 147.72501 25177 ft 462 kts 194°
2026-04-28 11:52 -41.77602 147.72127 24684 ft 458 kts 194°
2026-04-28 11:52 -41.80746 147.71565 23840 ft 454 kts 194°
2026-04-28 11:52 -41.84873 147.70826 22600 ft 448 kts 194°
2026-04-28 11:52 -41.87944 147.70274 21766 ft 441 kts 193°
2026-04-28 11:53 -41.90960 147.69731 20952 ft 434 kts 193°
2026-04-28 11:53 -41.92978 147.69368 20418 ft 430 kts 193°
2026-04-28 11:53 -41.95923 147.68835 19619 ft 425 kts 193°
2026-04-28 11:53 -41.98798 147.68314 18854 ft 419 kts 193°
2026-04-28 11:54 -42.01676 147.67793 17998 ft 414 kts 193°
2026-04-28 11:54 -42.04523 147.67279 17156 ft 409 kts 193°
2026-04-28 11:54 -42.07349 147.66977 16362 ft 408 kts 185°
2026-04-28 11:54 -42.10180 147.67302 15611 ft 408 kts 177°
2026-04-28 11:55 -42.12952 147.68199 14856 ft 410 kts 168°
2026-04-28 11:55 -42.15644 147.69392 14125 ft 405 kts 168°
2026-04-28 11:55 -42.18302 147.70613 13319 ft 402 kts 168°
2026-04-28 11:55 -42.20903 147.71807 12565 ft 397 kts 168°
2026-04-28 11:56 -42.23504 147.72989 11824 ft 393 kts 168°
2026-04-28 11:56 -42.26096 147.74145 11232 ft 386 kts 169°
2026-04-28 11:56 -42.28582 147.75240 11101 ft 367 kts 169°
2026-04-28 11:56 -42.30960 147.76309 10923 ft 352 kts 169°
2026-04-28 11:57 -42.33239 147.77332 10781 ft 338 kts 169°
2026-04-28 11:57 -42.35455 147.77954 10598 ft 312 kts 189°
2026-04-28 11:57 -42.37522 147.77745 10485 ft 294 kts 194°
2026-04-28 11:57 -42.39522 147.77475 10376 ft 282 kts 195°
2026-04-28 11:58 -42.41437 147.77210 10283 ft 271 kts 195°
2026-04-28 11:58 -42.43257 147.76965 10224 ft 253 kts 195°
2026-04-28 11:58 -42.44974 147.76736 9752 ft 249 kts 196°
2026-04-28 11:58 -42.46658 147.76504 9344 ft 243 kts 196°
2026-04-28 11:59 -42.48316 147.76285 9019 ft 235 kts 196°
2026-04-28 11:59 -42.49913 147.76068 8737 ft 226 kts 198°
2026-04-28 11:59 -42.51444 147.75846 8452 ft 217 kts 197°
2026-04-28 11:59 -42.52916 147.75662 8219 ft 207 kts 197°
2026-04-28 12:00 -42.54331 147.75484 7983 ft 200 kts 197°
2026-04-28 12:00 -42.55707 147.75305 7737 ft 197 kts 198°
2026-04-28 12:00 -42.57058 147.75128 7495 ft 193 kts 198°
2026-04-28 12:00 -42.58378 147.74960 7276 ft 187 kts 198°
2026-04-28 12:01 -42.59647 147.74793 7063 ft 180 kts 199°
2026-04-28 12:01 -42.60860 147.74632 6845 ft 176 kts 200°
2026-04-28 12:01 -42.62072 147.74471 6633 ft 175 kts 198°
2026-04-28 12:01 -42.63281 147.74316 6401 ft 173 kts 199°
2026-04-28 12:02 -42.64465 147.74161 6208 ft 171 kts 199°
2026-04-28 12:02 -42.65657 147.74001 5982 ft 172 kts 199°
2026-04-28 12:02 -42.66844 147.73845 5893 ft 174 kts 199°
2026-04-28 12:02 -42.68051 147.73684 5808 ft 175 kts 199°
2026-04-28 12:03 -42.69279 147.73519 5584 ft 178 kts 198°
2026-04-28 12:03 -42.70515 147.73356 5401 ft 179 kts 199°
2026-04-28 12:03 -42.71758 147.73193 5178 ft 177 kts 198°
2026-04-28 12:03 -42.72969 147.73042 5073 ft 174 kts 199°
2026-04-28 12:04 -42.74184 147.72879 5051 ft 177 kts 199°
2026-04-28 12:04 -42.75406 147.72719 5019 ft 174 kts 199°
2026-04-28 12:04 -42.76562 147.72574 5011 ft 163 kts 200°
2026-04-28 12:04 -42.77670 147.72431 5000 ft 158 kts 200°
2026-04-28 12:05 -42.78765 147.72285 5015 ft 159 kts 201°
2026-04-28 12:05 -42.79859 147.72117 5056 ft 155 kts 204°
2026-04-28 12:05 -42.80937 147.71877 5051 ft 161 kts 203°
2026-04-28 12:05 -42.82005 147.71547 4947 ft 150 kts 220°
2026-04-28 12:06 -42.82788 147.70726 4933 ft 141 kts 230°
2026-04-28 12:06 -42.83553 147.69864 4770 ft 141 kts 228°
2026-04-28 12:06 -42.84318 147.69106 4641 ft 133 kts 225°
2026-04-28 12:06 -42.85067 147.68373 4349 ft 134 kts 227°
2026-04-28 12:07 -42.85817 147.67582 3956 ft 143 kts 227°
2026-04-28 12:07 -42.86635 147.66721 3435 ft 151 kts 227°
2026-04-28 12:07 -42.87434 147.65831 3044 ft 145 kts 230°
2026-04-28 12:07 -42.88080 147.64838 2715 ft 135 kts 240°
2026-04-28 12:08 -42.88595 147.63785 2366 ft 133 kts 243°
2026-04-28 12:08 -42.89109 147.62741 1979 ft 130 kts 245°
2026-04-28 12:08 -42.89416 147.61692 1839 ft 114 kts 265°
2026-04-28 12:08 -42.89406 147.60600 1617 ft 117 kts 279°
2026-04-28 12:09 -42.89215 147.59511 1613 ft 117 kts 290°
2026-04-28 12:09 -42.88823 147.58511 1412 ft 123 kts 301°
2026-04-28 12:09 -42.88297 147.57532 1147 ft 132 kts 309°
2026-04-28 12:09 -42.87665 147.56624 946 ft 132 kts 313°
2026-04-28 12:10 -42.87024 147.55732 738 ft 130 kts 317°
2026-04-28 12:10 -42.86404 147.54889 550 ft 127 kts 319°
2026-04-28 12:10 -42.85754 147.54056 369 ft 129 kts 319°
2026-04-28 12:10 -42.85124 147.53194 213 ft 127 kts 318°
2026-04-28 12:11 -42.84503 147.52360 50 ft 123 kts 319°
2026-04-28 12:11 -42.83938 147.51626 20 ft 97 kts 315°
2026-04-28 12:11 -42.83549 147.51093 23 ft 53 kts 315°
2026-04-28 12:11 -42.83359 147.50834 20 ft 34 kts 314°
2026-04-28 12:12 -42.83379 147.50568 19 ft 23 kts 221°
2026-04-28 12:12 -42.83488 147.50638 20 ft 18 kts 136°
2026-04-28 12:12 -42.83594 147.50665 21 ft 18 kts 221°
2026-04-28 12:12 -42.83609 147.50646 21 ft 0 kts 224°
2026-04-28 12:13 -42.83612 147.50642 20 ft 2 kts 224°
2026-04-28 12:13 -42.83626 147.50620 19 ft 5 kts 227°
2026-04-28 12:13 -42.83642 147.50598 19 ft 0 kts 224°
2026-04-28 12:13 -42.83646 147.50593 19 ft 1 kts 224°
2026-04-28 12:14 -42.83652 147.50586 19 ft 1 kts 225°
2026-04-28 12:14 -42.83655 147.50582 19 ft 0 kts 225°
2026-04-28 12:14 -42.83655 147.50581 19 ft 0 kts 225°